Location: Capelle
(50.3413°N, 1.9974°E)
Time: 07:01:31
(UTC+00:00)

IRS-P3 - Pass Details

Date: 12 January 2026
Orbit: 811 x 815 km, 99.0° (Epoch: 18 February)

Event Time Altitude Azimuth Distance (km) Brightness Sun altitude
Rises 17:10:20 0° 148° (SSE) 3,322 7.2 -8.9°
Reaches altitude 10° 17:12:42 10° 144° (SE) 2,395 6.4 -9.2°
Maximum altitude 17:17:51 55° 68° (ENE) 976 4.2 -10.0°
Drops below altitude 10° 17:23:02 10° 352° (N) 2,412 6.5 -10.7°
Sets 17:25:25 0° 348° (NNW) 3,348 7.2 -11.1°
